Hourly Weather Allahabad

Today, 8 March, Monday

Time Temperature Precipitation Wind Pressure Humidity
00:00 +24°C° 0 mm 3 mps 749 mmHg 18%
01:00 +22°C° 0 mm 3 mps 749 mmHg 19%
02:00 +21°C° 0 mm 3 mps 748 mmHg 20%
03:00 +21°C° 0 mm 3 mps 749 mmHg 21%
04:00 +20°C° 0 mm 3 mps 749 mmHg 22%
05:00 +20°C° 0 mm 3 mps 749 mmHg 24%
06:00 +22°C° 0 mm 3 mps 750 mmHg 22%
07:00 +25°C° 0 mm 3 mps 751 mmHg 20%
08:00 +27°C° 0 mm 3 mps 751 mmHg 18%
09:00 +31°C° 0 mm 3 mps 751 mmHg 16%
10:00 +35°C° 0 mm 2 mps 751 mmHg 13%
11:00 +39°C° 0 mm 1 mps 751 mmHg 11%
12:00 +40°C° 0 mm 1 mps 750 mmHg 10%
13:00 +40°C° 0 mm 2 mps 749 mmHg 9%
14:00 +41°C° 0 mm 2 mps 748 mmHg 8%
15:00 +40°C° 0 mm 2 mps 747 mmHg 9%
16:00 +39°C° 0 mm 2 mps 747 mmHg 10%
17:00 +38°C° 0 mm 2 mps 747 mmHg 10%
18:00 +35°C° 0 mm 2 mps 747 mmHg 12%
19:00 +31°C° 0 mm 1 mps 748 mmHg 13%
20:00 +29°C° 0 mm 1 mps 748 mmHg 15%
21:00 +28°C° 0 mm 1 mps 748 mmHg 17%
22:00 +26°C° 0 mm 1 mps 748 mmHg 18%
23:00 +25°C° 0 mm 2 mps 748 mmHg 20%

Tomorrow, 9 March, Tuesday

Time Temperature Precipitation Wind Pressure Humidity
00:00 +25°C° 0 mm 2 mps 748 mmHg 21%
01:00 +24°C° 0 mm 2 mps 748 mmHg 23%
02:00 +23°C° 0 mm 2 mps 747 mmHg 24%
03:00 +23°C° 0 mm 2 mps 748 mmHg 26%
04:00 +22°C° 0 mm 1 mps 748 mmHg 27%
05:00 +21°C° 0 mm 1 mps 748 mmHg 29%
06:00 +23°C° 0 mm 1 mps 749 mmHg 26%
07:00 +26°C° 0 mm 1 mps 750 mmHg 22%
08:00 +28°C° 0 mm 1 mps 751 mmHg 19%
09:00 +31°C° 0 mm 1 mps 750 mmHg 17%
10:00 +35°C° 0 mm 2 mps 750 mmHg 14%
11:00 +38°C° 0 mm 2 mps 750 mmHg 11%
12:00 +39°C° 0 mm 2 mps 749 mmHg 11%
13:00 +40°C° 0 mm 2 mps 748 mmHg 10%
14:00 +41°C° 0 mm 2 mps 747 mmHg 9%
15:00 +40°C° 0 mm 2 mps 747 mmHg 10%
16:00 +39°C° 0 mm 2 mps 747 mmHg 11%
17:00 +38°C° 0 mm 2 mps 747 mmHg 12%
18:00 +35°C° 0 mm 2 mps 747 mmHg 14%
19:00 +32°C° 0 mm 2 mps 748 mmHg 16%
20:00 +29°C° 0 mm 2 mps 749 mmHg 18%
21:00 +28°C° 0 mm 2 mps 749 mmHg 19%
22:00 +27°C° 0 mm 2 mps 749 mmHg 20%
23:00 +26°C° 0 mm 2 mps 749 mmHg 21%

Day after tomorrow, 10 March, Wednesday

Time Temperature Precipitation Wind Pressure Humidity
00:00 +26°C° 0 mm 2 mps 749 mmHg 22%
01:00 +25°C° 0 mm 2 mps 748 mmHg 23%
02:00 +24°C° 0 mm 2 mps 748 mmHg 24%
03:00 +24°C° 0 mm 1 mps 748 mmHg 25%
04:00 +23°C° 0 mm 1 mps 748 mmHg 26%
05:00 +23°C° 0 mm 1 mps 748 mmHg 27%
06:00 +25°C° 0 mm 1 mps 749 mmHg 24%
07:00 +28°C° 0 mm 1 mps 750 mmHg 21%
08:00 +31°C° 0 mm 1 mps 751 mmHg 18%
09:00 +33°C° 0 mm 1 mps 750 mmHg 16%
10:00 +36°C° 0 mm 1 mps 750 mmHg 13%
11:00 +40°C° 0 mm 1 mps 750 mmHg 11%
12:00 +41°C° 0 mm 2 mps 749 mmHg 10%
13:00 +42°C° 0 mm 2 mps 748 mmHg 9%
14:00 +43°C° 0 mm 3 mps 747 mmHg 8%
15:00 +41°C° 0 mm 2 mps 746 mmHg 8%
16:00 +40°C° 0 mm 2 mps 746 mmHg 9%
17:00 +39°C° 0 mm 2 mps 746 mmHg 9%
18:00 +36°C° 0 mm 2 mps 746 mmHg 11%
19:00 +34°C° 0 mm 2 mps 747 mmHg 12%
20:00 +30°C° 0 mm 1 mps 747 mmHg 13%
21:00 +29°C° 0 mm 1 mps 747 mmHg 14%
22:00 +28°C° 0 mm 1 mps 748 mmHg 15%
23:00 +27°C° 0 mm 1 mps 748 mmHg 16%

11 March, Thursday

Time Temperature Precipitation Wind Pressure Humidity
00:00 +26°C° 0 mm 1 mps 748 mmHg 17%
01:00 +26°C° 0 mm 1 mps 748 mmHg 17%
02:00 +25°C° 0 mm 1 mps 747 mmHg 18%
03:00 +24°C° 0 mm 1 mps 747 mmHg 19%
04:00 +24°C° 0 mm 1 mps 748 mmHg 20%
05:00 +23°C° 0 mm 1 mps 748 mmHg 20%
06:00 +25°C° 0 mm 1 mps 749 mmHg 18%
07:00 +28°C° 0 mm 1 mps 749 mmHg 16%
08:00 +28°C° 0 mm 0 mps 750 mmHg 14%
09:00 +34°C° 0 mm 1 mps 750 mmHg 12%
10:00 +37°C° 0 mm 1 mps 750 mmHg 10%
11:00 +41°C° 0 mm 1 mps 750 mmHg 8%
12:00 +42°C° 0 mm 1 mps 749 mmHg 7%
13:00 +42°C° 0 mm 2 mps 748 mmHg 7%
14:00 +43°C° 0 mm 2 mps 747 mmHg 6%
15:00 +42°C° 0 mm 2 mps 747 mmHg 7%
16:00 +41°C° 0 mm 2 mps 747 mmHg 8%
17:00 +40°C° 0 mm 2 mps 747 mmHg 8%
18:00 +37°C° 0 mm 2 mps 747 mmHg 10%
19:00 +34°C° 0 mm 2 mps 748 mmHg 11%
20:00 +30°C° 0 mm 1 mps 748 mmHg 13%
21:00 +30°C° 0 mm 2 mps 748 mmHg 13%
22:00 +29°C° 0 mm 2 mps 749 mmHg 14%
23:00 +28°C° 0 mm 2 mps 749 mmHg 14%

12 March, Friday

Time Temperature Precipitation Wind Pressure Humidity
00:00 +27°C° 0 mm 2 mps 749 mmHg 15%
01:00 +26°C° 0 mm 2 mps 748 mmHg 16%
02:00 +25°C° 0 mm 2 mps 748 mmHg 16%
03:00 +25°C° 0 mm 2 mps 749 mmHg 17%
04:00 +25°C° 0 mm 1 mps 749 mmHg 17%
05:00 +24°C° 0 mm 1 mps 749 mmHg 18%
06:00 +27°C° 0 mm 1 mps 750 mmHg 16%
07:00 +29°C° 0 mm 1 mps 751 mmHg 14%
08:00 +31°C° 0 mm 1 mps 751 mmHg 13%
09:00 +35°C° 0 mm 2 mps 751 mmHg 11%
10:00 +38°C° 0 mm 2 mps 751 mmHg 9%
11:00 +41°C° 0 mm 2 mps 750 mmHg 8%
12:00 +42°C° 0 mm 2 mps 750 mmHg 7%
13:00 +43°C° 0 mm 1 mps 749 mmHg 7%
14:00 +43°C° 0 mm 1 mps 748 mmHg 7%
15:00 +42°C° 0 mm 2 mps 748 mmHg 7%
16:00 +41°C° 0 mm 2 mps 747 mmHg 8%
17:00 +40°C° 0 mm 2 mps 747 mmHg 9%
18:00 +38°C° 0 mm 2 mps 748 mmHg 11%
19:00 +36°C° 0 mm 2 mps 749 mmHg 13%
20:00 +32°C° 0 mm 2 mps 749 mmHg 16%
21:00 +31°C° 0 mm 3 mps 750 mmHg 17%
22:00 +30°C° 0 mm 4 mps 750 mmHg 18%
23:00 +29°C° 0 mm 4 mps 751 mmHg 19%

13 March, Saturday

Time Temperature Precipitation Wind Pressure Humidity
00:00 +28°C° 0 mm 4 mps 751 mmHg 22%
01:00 +27°C° 0 mm 4 mps 751 mmHg 26%
02:00 +26°C° 0 mm 4 mps 750 mmHg 30%
03:00 +25°C° 0 mm 3 mps 751 mmHg 33%
04:00 +25°C° 0 mm 3 mps 751 mmHg 35%
05:00 +24°C° 0 mm 2 mps 751 mmHg 38%
06:00 +26°C° 0 mm 2 mps 752 mmHg 34%
07:00 +28°C° 0 mm 2 mps 752 mmHg 30%
08:00 +31°C° 0 mm 2 mps 753 mmHg 26%
09:00 +34°C° 0 mm 2 mps 752 mmHg 22%
10:00 +37°C° 0 mm 2 mps 752 mmHg 18%
11:00 +40°C° 0 mm 2 mps 752 mmHg 14%
12:00 +42°C° 0 mm 3 mps 751 mmHg 13%
13:00 +43°C° 0 mm 5 mps 750 mmHg 11%
14:00 +44°C° 0 mm 6 mps 749 mmHg 10%
15:00 +42°C° 0 mm 5 mps 748 mmHg 10%
16:00 +42°C° 0 mm 5 mps 748 mmHg 11%
17:00 +41°C° 0 mm 5 mps 748 mmHg 11%
18:00 +37°C° 0 mm 4 mps 748 mmHg 13%
19:00 +34°C° 0 mm 4 mps 749 mmHg 15%
20:00 +30°C° 0 mm 3 mps 749 mmHg 16%
21:00 +30°C° 0 mm 3 mps 749 mmHg 17%
22:00 +29°C° 0 mm 3 mps 749 mmHg 18%
23:00 +28°C° 0 mm 3 mps 749 mmHg 19%
Show more